www.pogodaiklimat.ru
ПОГОДА в Ферфилде
Время
и дата
07:55 19.07
08:55 19.07
09:55 19.07
10:55 19.07
11:55 19.07
12:55 19.07
13:55 19.07
14:55 19.07
15:55 19.07
16:55 19.07
17:55 19.07
18:55 19.07
19:55 19.07
20:55 19.07
21:55 19.07
22:55 19.07
23:55 19.07
00:55 20.07
01:55 20.07
02:55 20.07
03:55 20.07
04:55 20.07
05:55 20.07
06:55 20.07
07:55 20.07
08:55 20.07
09:55 20.07
10:55 20.07
11:55 20.07
12:55 20.07
13:55 20.07
14:55 20.07
15:55 20.07
16:55 20.07
17:55 20.07
18:55 20.07
19:55 20.07
20:55 20.07
21:55 20.07
22:55 20.07
23:55 20.07
00:55 21.07
01:55 21.07
02:55 21.07
03:55 21.07
04:55 21.07
06:29 21.07
06:55 21.07
Ветер
(напр.,м/с)
Видим. Явления Облачность Т
(С)
Тd
(С)
f
(%)
Тe
(С)
Тes
(С)
Комфортность P
(гПа)
Po
(гПа)
Тmin
(С)
Tmax
(С)
R
(мм)
R24
(мм)
S
(см)
З 6 16 км ясно +24.0 +12.3 48 +26 +27 жарко 1014.8 1011.8
ЮЗ 4 16 км ясно +28.2 +12.9 39 +30 +35 жарко 1014.8 1011.8
З 3 16 км ясно +31.9 +12.1 30 +32 +42 жарко 1014.8 1011.8 +16.9 +31.9
ЮЗ 3 16 км ясно +34.9 +10.0 22 +34 +47 очень
жарко
1014.5 1011.5
З 3 16 км 2/0 4800 m
[Ac]
+36.3 +9.0 19 +35 +48 очень
жарко
1014.1 1011.1
ЮЗ 4 16 км ясно +39.0 +9.5 17 +37 +51 опасность
солнечного
удара
1013.5 1010.5
ЮЗ 6 16 км ясно +39.9 +8.3 15 +38 +46 очень
жарко
1012.8 1009.8
З 8 16 км ясно +40.7 +6.9 13 +38 +41 очень
жарко
1011.8 1008.8
ЮЗ 8 16 км ясно +39.6 +6.0 13 +37 +39 очень
жарко
1011.1 1008.1 +32.0 +40.7
ЮЗ 9 16 км ясно +38.2 +6.0 14 +36 +36 очень
жарко
1010.4 1007.4
ЮЗ 8 16 км ясно +35.3 +7.4 18 +33 +34 жарко 1010.4 1007.4
ЮЗ 6 16 км ясно +31.5 +9.1 25 +31 +31 жарко 1010.4 1007.4
ЮЗ 5 16 км ясно +28.1 +7.9 28 +28 +28 жарко 1010.8 1007.8
ЮЗ 5 16 км ясно +25.8 +8.7 34 +26 +26 жарко 1011.1 1008.1
ЮЗ 7 16 км ясно +24.3 +8.7 37 +25 +25 комфорт 1011.1 1008.1 +24.3 +39.8
ЮЗ 8 16 км ясно +22.2 +9.7 45 +24 +24 комфорт 1010.7 1007.8
ЮЗ 6 16 км ясно +21.0 +10.8 52 +23 +23 комфорт 1010.4 1007.4
ЮЗ 7 16 км ясно +20.1 +11.3 57 +21 +21 комфорт 1010.4 1007.4
ЮЗ 6 16 км ясно +19.1 +11.4 61 +20 +20 1010.4 1007.4
ЮЗ 6 16 км ясно +18.4 +12.2 67 +18 +18 1010.4 1007.4
З 6 16 км ясно +18.0 +12.9 72 +17 +17 1010.4 1007.4 +17.7 +24.2
ЮЗ 7 16 км ясно +17.4 +12.5 73 +16 +16 1010.7 1007.8
ЮЗ 7 16 км ясно +17.8 +12.9 73 +17 +17 1011.1 1008.1
ЮЗ 7 16 км ясно +20.4 +12.9 62 +22 +22 комфорт 1012.1 1009.1
З 7 16 км ясно +23.4 +12.7 51 +26 +27 жарко 1012.5 1009.5
З 7 16 км ясно +26.1 +12.9 44 +28 +30 жарко 1012.4 1009.5
ЮЗ 7 16 км ясно +28.5 +12.0 36 +30 +33 жарко 1012.4 1009.5 +17.3 +28.5
ЮЗ 8 16 км ясно +31.7 +12.0 30 +32 +35 жарко 1011.8 1008.8
ЮЗ 8 16 км ясно +33.6 +12.0 27 +34 +37 очень
жарко
1011.4 1008.4
ЮЗ 8 16 км 2/0 6000 m
[Ac]
+35.9 +12.1 24 +36 +39 очень
жарко
1011.1 1008.1
ЮЗ 10 16 км ясно +36.5 +13.3 25 +37 +38 очень
жарко
1010.4 1007.4
З 10
{13}
16 км ясно +35.4 +12.3 25 +35 +36 очень
жарко
1010.1 1007.1
ЮЗ 10 16 км ясно +33.9 +12.2 27 +34 +35 очень
жарко
1009.4 1006.4 +28.6 +37.4
ЮЗ 10 16 км ясно +31.1 +12.4 32 +32 +32 жарко 1009.4 1006.4
ЮЗ 11
{13}
16 км ясно +28.4 +11.9 36 +29 +29 жарко 1009.4 1006.4
ЮЗ 8 16 км ясно +25.9 +12.0 42 +27 +28 жарко 1009.7 1006.8
ЮЗ 8
{11}
16 км ясно +23.6 +11.9 48 +25 +25 комфорт 1010.1 1007.1
ЮЗ 11 16 км ясно +21.4 +11.7 54 +23 +23 комфорт 1010.1 1007.1
ЮЗ 12
{15}
16 км ясно +19.7 +11.7 60 +20 +20 1010.1 1007.1 +19.7 +33.8
ЮЗ 10
{14}
16 км ясно +18.7 +12.0 65 +18 +18 1010.4 1007.4
ЮЗ 11
{14}
16 км ясно +17.9 +11.9 68 +17 +17 1010.4 1007.4
ЮЗ 10
{14}
16 км ясно +16.8 +11.7 72 +15 +15 1010.4 1007.4
ЮЗ 11 16 км ясно +16.2 +11.8 75 +14 +14 1010.4 1007.4
ЮЗ 11 16 км ясно +15.7 +11.7 77 +13 +13 1010.4 1007.4
ЮЗ 12
{14}
16 км ясно +15.3 +12.2 82 +13 +13 1010.4 1007.4 +15.3 +19.6
ЮЗ 12 16 км ясно +15.0 +12.1 83 +12 +12 1010.8 1007.8
ЮЗ 12
{14}
16 км ясно +16.0 +12.0 77 +14 +14 1008.4
ЮЗ 12 16 км ясно +16.5 +12.2 76 +14 +14 1011.8 1008.8
Местоположение метеостанции Travis Air Force Base: широта 38.2667 долгота -121.9500 высота над уровнем моря 19 м.
В архиве по умолчанию представлена погода в Ферфилде за последние 1-2 суток. Обновление информации о фактической погоде в базе происходит ежечасно! Архивные данные за месяц целиком и за предыдущие месяцы Вы можете получить, выбрав интересующий диапазон дат из раскрывающегося списка и нажав кнопку "Ввод!".
Внимание! Архив погоды МЕТАР в базе сайта по станциям, не включенным в климатический монитор, хранится не более 60 дней. Нет смысла пытаться выбрать более раннюю дату.
*Определитесь, кто Вы:
Внимание! Время в таблицах - местное (без учета летнего времени). Для получения всемирного времени необходимо вычесть поправку, которая равна -8 ч.
Смотрите также архив погоды в соседних городах и на ближайших метеорологических станциях:
Партнеры нашего сайта:      
Пояснения к столбцам:
  • Ветер - указаны скорость ветра в м/с - средняя за 10 мин, порывы в срок и между сроками (в фигурных скобках) и направление, откуда дует ветер: С - северный,
  • СВ - северо-восточный, В - восточный, ЮВ - юго-восточный, Ю - южный, ЮЗ - юго-западный, З - западный, СЗ - северо-западный.
  • Видимость - горизонтальная дальность видимости в метрах или километрах. При видимости от 1 до 10 км при отсутствии осадков обычно наблюдается дымка, при ухудшении видимости до 1 км и менее - туман. В сухую погоду видимость может ухудшаться дымом, пылью или мглою.
  • Явления - указаны атмосферные явления, наблюдавшиеся в срок или в последний час перед сроком; фигурными скобками обозначены явления, наблюдавшиеся между сроками (за 1-3 часа до срока); квадратными скобками обозначены град или гололедные отложения с указанием их диаметра в мм.
  • Облачность - указаны через наклонную черту общая и нижняя облачность в баллах и высота нижней границы облаков в метрах; квадратными скобками обозначены формы облаков: Ci - перистые, Cs - перисто-слоистые, Cc - перисто-кучевые, Ac - высококучевые, As - высокослоистые, Sc - слоисто-кучевые, Ns - слоисто-дождевые, Cu - кучевые, Cb - кучево-дождевые. Подробнее классификацию облаков см. в Атласе облаков (PDF).
  • T - Температура воздуха - температура, измеренная на высоте 2 м над землей.
  • Td - Температура точки росы - температура, при понижении до которой содержащийся в воздухе водяной пар достигнет насыщения.
  • f - Относительная влажность воздуха - влажноcть воздуха, измеренная на высоте 2 м над землей.
  • Te - Эффективная температура - температура, которую ощущает одетый по сезону человек в тени. Характеристика душности погоды. При расчете учитывается влияние влажности воздуха и скорости ветра на теплоощущения человека.
  • Tes - Эффективная температура на солнце - температура, которую ощущает человек, с поправкой на солнечный нагрев. Характеристика знойности погоды. Зависит от высоты солнца над горизонтом, облачности и скорости ветра. Ночью, в пасмурную погоду, а также при ветре 12 м/с и более поправка равна нулю.
  • P - Атмосферное давление - приведенное к уровню моря атмосферное давление.
  • Po - Атмосферное давление - измеренное на уровне метеостанции атмосферное давление.
  • Tmin - Минимальная температура - минимум температуры воздуха на высоте 2 м над землей.
  • Tmax - Максимальная температура - максимум температуры воздуха на высоте 2 м над землей.
  • R - Количество осадков - Количество выпавших осадков за период времени, мм. При наведении курсора мыши на число - период времени, за который выпало указанное количество осадков.
  • R24 - Количество осадков - Количество выпавших осадков за 24 часа, мм.
  • S - Снежный покров - Высота снежного покрова, см. При наведении курсора мыши на число - состояние снежного покрова и степень покрытия местности в баллах.